Melilla, Spain

11:30 AM CEST on August 30, 2016 (GMT +0200)
Melilla

Weather History for GEML - November, 2012

Change the Weather History Date:

Saturday, November 10, 2012

  Actual Average Record
Temperature  
Mean Temperature 64 °F -  
Max Temperature 68 °F 67 °F 78 °F (2002)
Min Temperature 60 °F 56 °F 44 °F (2001)
Degree Days  
Heating Degree Days 1    
Growing Degree Days 14 (Base 50)    
Moisture  
Dew Point 56 °F    
Average Humidity 74    
Maximum Humidity 83    
Minimum Humidity 60    
Precipitation  
Precipitation 0.00 in 0.06 in - ()
Sea Level Pressure  
Sea Level Pressure 29.94 in    
Wind  
Wind Speed 4 mph ()    
Max Wind Speed 10 mph    
Max Gust Speed -    
Visibility 6.5 miles    
Events      
Averages and records for this station are not official NWS values.
T = Trace of Precipitation, MM = Missing Value Source: Averaged Metar Reports

Daily Weather History Graph

Daily Weather History Graph

Search for Another Location

Airport or City:

Trip Planner

Search our weather history database for the weather conditions in past years. The results will help you decide how hot, cold, wet, or windy it might be!

Date:

Astronomy

Nov. 10, 2012 Rise Set
Actual Time 7:42 AM CET 6:08 PM CET
Civil Twilight 7:15 AM CET 6:35 PM CET
Nautical Twilight 6:44 AM CET 7:06 PM CET
Astronomical Twilight 6:15 AM CET 7:36 PM CET
Moon 3:39 AM CET (11/10) 3:40 PM CET (11/10)
Length of Visible Light 11h 20m
Length of Day
10h 26m
Waning Crescent, 16% of the Moon is Illuminated
Nov 10
Waning Crescent
Nov 13
New
Nov 20
First Quarter
Nov 28
Full
Dec 6
Last Quarter

Hourly Weather History & Observations

Time (CET) Temp. Dew Point Humidity Pressure Visibility Wind Dir Wind Speed Gust Speed Precip Events Conditions
6:00 AM 62.6 °F 57.2 °F 82% 29.92 in 6.2 mi West 3.5 mph - N/A   Partly Cloudy
6:30 AM 62.6 °F 57.2 °F 82% 29.92 in 6.2 mi Variable 2.3 mph - N/A   Partly Cloudy
7:00 AM 62 °F 56 °F 75% 29.93 in 16 mi Calm Calm - -   Overcast
7:00 AM 62.6 °F 57.2 °F 82% 29.92 in 6.2 mi Calm Calm - N/A   Partly Cloudy
7:30 AM 62.6 °F 57.2 °F 82% 29.92 in 6.2 mi Variable 2.3 mph - N/A   Partly Cloudy
8:00 AM 62.6 °F 55.4 °F 77% 29.95 in 6.2 mi Variable 2.3 mph - N/A   Partly Cloudy
8:30 AM 60.8 °F 55.4 °F 82% 29.95 in 6.2 mi SW 3.5 mph - N/A   Partly Cloudy
9:00 AM 62.6 °F 57.2 °F 82% 29.98 in 6.2 mi Variable 2.3 mph - N/A   Partly Cloudy
9:30 AM 66.2 °F 57.2 °F 73% 29.98 in 6.2 mi SW 3.5 mph - N/A   Partly Cloudy
10:00 AM 66.2 °F 57.2 °F 73% 29.98 in 6.2 mi West 4.6 mph - N/A   Partly Cloudy
10:30 AM 66.2 °F 57.2 °F 73% 29.98 in 6.2 mi West 6.9 mph - N/A   Scattered Clouds
11:00 AM 68.0 °F 57.2 °F 68% 29.98 in 6.2 mi West 6.9 mph - N/A   Scattered Clouds
11:30 AM 68.0 °F 57.2 °F 68% 29.98 in 6.2 mi West 6.9 mph - N/A   Partly Cloudy
12:00 PM 64.4 °F 59.0 °F 83% 29.98 in 6.2 mi West 8.1 mph - N/A   Scattered Clouds
12:30 PM 66.2 °F 57.2 °F 73% 29.95 in 6.2 mi West 8.1 mph - N/A   Scattered Clouds
1:00 PM 67 °F 57 °F 63% 29.95 in 25 mi WSW 9.2 mph - -   Partly Cloudy
1:00 PM 66.2 °F 57.2 °F 73% 29.95 in 6.2 mi WSW 8.1 mph - N/A   Scattered Clouds
1:30 PM 68.0 °F 55.4 °F 64% 29.92 in 6.2 mi West 8.1 mph - N/A   Scattered Clouds
2:00 PM 68.0 °F 53.6 °F 60% 29.92 in 6.2 mi West 9.2 mph - N/A   Partly Cloudy
2:30 PM 68.0 °F 55.4 °F 64% 29.92 in 6.2 mi West 8.1 mph - N/A   Partly Cloudy
3:00 PM 68.0 °F 55.4 °F 64% 29.92 in 6.2 mi West 8.1 mph - N/A   Partly Cloudy
3:30 PM 66.2 °F 55.4 °F 68% 29.92 in 6.2 mi West 10.4 mph - N/A   Partly Cloudy
4:00 PM 66.2 °F 57.2 °F 73% 29.92 in 6.2 mi West 9.2 mph - N/A   Scattered Clouds
4:30 PM 66.2 °F 55.4 °F 68% 29.89 in 6.2 mi West 9.2 mph - N/A   Partly Cloudy
5:00 PM 64.4 °F 55.4 °F 73% 29.89 in 6.2 mi West 6.9 mph - N/A   Partly Cloudy
5:30 PM 64.4 °F 55.4 °F 73% 29.92 in 6.2 mi West 9.2 mph - N/A   Scattered Clouds
6:00 PM 64.4 °F 55.4 °F 73% 29.92 in 6.2 mi WSW 6.9 mph - N/A   Partly Cloudy
6:30 PM 62.6 °F 57.2 °F 82% 29.92 in 6.2 mi WSW 4.6 mph - N/A   Partly Cloudy
7:00 PM 62 °F 56 °F 75% 29.93 in 25 mi SW 4.6 mph - -   Partly Cloudy
7:00 PM 62.6 °F 55.4 °F 77% 29.92 in 6.2 mi SW 4.6 mph - N/A   Partly Cloudy
7:30 PM 62.6 °F 57.2 °F 82% 29.95 in 6.2 mi West 6.9 mph - N/A   Partly Cloudy